Theta_e
298 298 298 300 300 301 301 302 302 303 303 304 305 305 306 309 312 314 316 321 322 324 329 332 333 336 332 338 338 339 337 336 330 320 323 322 321 320 319 316 319 313 314
297 299 299 300 300 299 300 300 301 301 303 303 304 304 306 308 311 314 315 319 321 323 328 330 333 335 332 335 337 337 337 336 330 320 319 319 318 320 315 314 314 313 311
299 298 298 298 298 299 301 301 301 301 301 302 303 304 305 307 310 313 315 317 321 323 328 330 332 333 331 332 336 337 337 333 328 322 318 321 319 317 313 312 311 308 312
297 297 297 299 300 300 300 300 300 301 301 301 302 304 305 307 310 314 317 317 322 325 327 331 334 333 331 332 335 337 335 330 325 322 319 317 316 314 313 308 306 306 307
296 296 297 299 300 299 300 301 301 301 301 302 302 302 303 306 310 312 316 321 322 326 328 331 334 335 330 331 335 336 333 327 323 319 317 316 312 310 309 309 306 306 302
296 296 298 299 300 299 300 300 300 301 301 302 302 301 301 305 306 308 311 315 321 328 330 332 335 328 327 322 325 327 331 326 321 318 316 315 312 312 311 307 305 304 300
296 297 297 298 298 299 299 299 299 299 300 300 301 301 300 304 305 305 308 313 328 329 330 331 332 334 327 332 319 320 320 319 322 324 317 319 315 314 312 307 305 304 301
295 296 297 298 298 298 299 299 299 300 300 300 301 301 301 305 304 305 308 323 328 331 332 332 333 331 330 331 326 326 325 322 322 326 322 322 320 317 313 311 308 304 304
295 296 297 297 297 297 297 298 300 300 300 301 301 301 301 305 305 302 306 324 327 327 329 332 333 332 315 312 326 325 322 321 313 313 315 313 309 308 312 311 306 304 301
295 296 297 297 297 298 299 300 302 302 302 302 302 303 305 308 306 303 306 318 323 324 325 325 313 329 307 308 327 324 321 319 319 319 315 309 309 309 308 314 310 306 303
296 297 297 298 299 300 301 304 307 306 305 302 302 307 312 313 314 303 302 319 324 323 323 323 326 307 306 308 317 326 322 320 316 320 318 315 315 312 312 314 313 311 306
297 296 297 298 299 301 301 304 304 302 304 305 305 304 307 308 310 309 301 303 315 325 323 325 326 304 305 306 314 310 307 314 321 318 316 314 313 312 312 314 314 314 311
296 296 297 298 299 299 299 300 300 300 299 299 300 300 301 309 313 305 300 302 306 323 325 304 308 306 305 306 306 306 309 320 318 317 315 315 314 315 316 315 312 308 306
295 295 296 296 297 298 298 299 298 297 296 297 296 296 298 307 312 312 310 311 305 309 308 309 307 312 314 311 310 315 321 320 319 317 315 316 316 314 312 313 310 309 302
295 295 294 295 295 295 296 296 296 297 295 294 295 294 295 296 311 308 310 318 315 307 312 314 314 313 313 314 318 320 320 320 319 317 315 314 313 314 312 313 310 308 300
294 294 293 293 293 293 292 293 294 293 293 293 292 292 295 294 298 300 301 302 298 302 313 313 312 313 314 316 316 315 318 317 318 316 315 313 312 312 310 311 310 308 302
294 293 292 292 291 291 291 291 290 293 294 293 293 293 292 292 294 293 294 297 299 304 315 313 313 314 314 315 315 315 315 315 316 315 313 313 312 312 308 308 307 304 300
294 292 291 291 291 291 291 291 291 290 289 291 293 292 292 292 293 296 298 303 312 311 317 315 313 313 313 312 313 313 314 313 314 314 313 312 311 308 308 307 303 301 299
293 292 292 290 290 290 290 290 290 289 289 290 291 292 292 293 295 297 299 311 311 312 312 312 313 314 313 312 312 312 312 313 312 313 312 311 309 309 308 306 302 296 296
294 292 291 290 289 289 289 289 289 288 288 289 289 290 291 295 297 299 304 307 309 310 310 310 311 312 313 313 312 312 312 311 313 313 312 311 309 310 308 304 300 297 299
294 293 288 291 290 290 289 288 288 288 288 288 289 290 287 292 294 296 298 303 305 308 309 310 311 311 312 313 313 313 312 312 313 312 312 310 310 308 308 304 301 300 299
294 292 291 291 291 290 290 290 289 288 288 288 288 290 288 292 292 293 295 298 302 305 308 310 310 311 312 313 313 312 312 310 310 311 310 310 308 308 306 304 301 297 294
293 290 291 291 291 290 290 290 289 288 288 288 289 289 290 290 291 292 293 295 298 301 304 307 308 309 310 311 312 312 311 310 310 311 309 308 307 307 305 303 299 297 296
290 289 291 291 290 290 290 289 289 288 288 289 288 289 289 290 291 292 293 294 295 297 300 303 305 306 308 308 309 310 310 310 312 312 311 309 308 304 305 301 300 298 295
290 289 289 292 290 290 289 290 290 290 289 289 288 289 289 290 291 292 293 294 294 295 295 296 299 302 305 307 308 307 296 293 308 301 312 310 306 306 303 300 299 296 295
291 291 289 289 291 290 289 289 289 289 289 289 290 289 289 290 291 292 292 293 293 294 294 294 295 295 296 298 300 292 290 291 298 294 310 309 306 304 302 300 298 296 295
Wind_Speed
7 8 9 11 9 10 12 14 14 15 14 15 15 16 17 17 15 14 16 17 18 17 21 21 23 20 13 12 10 11 9 10 9 3 2 11 13 14 11 8 11 8 8
8 10 12 11 11 11 13 15 15 16 16 16 17 17 17 18 17 16 17 17 21 20 23 26 26 19 20 19 13 15 12 10 7 10 7 9 7 14 12 14 10 7 7
10 11 12 11 12 14 16 16 16 17 17 17 18 17 18 18 17 18 20 20 22 20 23 27 26 27 23 16 15 14 12 9 10 9 7 6 7 10 12 9 9 7 5
10 11 12 13 14 15 17 17 18 18 17 18 18 17 17 19 19 20 20 23 21 21 23 29 27 24 23 20 17 17 14 12 12 11 10 8 9 10 10 12 8 4 7
10 11 13 13 15 16 18 20 20 19 19 21 18 18 18 18 14 19 22 17 22 23 25 24 23 23 23 20 15 16 17 14 14 13 11 9 9 11 12 8 9 8 3
10 13 13 14 15 17 18 19 20 20 20 19 18 18 18 15 22 23 31 21 26 21 19 28 20 14 17 23 23 24 24 20 16 13 11 15 16 15 10 11 13 11 6
11 13 14 15 17 17 18 19 20 21 19 19 19 18 19 18 24 24 27 26 21 24 21 17 17 11 15 17 18 24 25 29 30 20 21 18 17 19 17 16 15 12 6
12 13 14 16 17 18 19 20 21 19 19 17 18 19 17 15 18 25 34 20 13 16 24 22 19 15 17 18 18 19 18 17 18 13 21 21 17 21 20 13 15 8 7
13 14 16 17 18 20 20 21 20 18 16 16 17 19 17 16 19 13 14 13 12 9 9 14 16 16 18 22 21 20 17 12 5 9 11 17 18 22 21 16 13 14 6
14 16 16 17 18 19 20 20 19 16 15 13 18 16 19 17 19 13 13 14 8 9 9 8 10 15 22 22 21 21 19 17 15 14 12 13 17 21 26 19 18 16 10
15 15 16 17 17 17 17 16 15 14 13 13 15 15 17 13 18 9 16 11 7 8 9 10 9 16 26 27 21 19 21 18 16 15 12 11 14 16 12 11 15 15 13
12 14 15 16 13 12 15 12 14 13 11 10 12 13 12 13 16 15 9 14 11 9 8 7 9 25 30 24 21 18 25 22 13 13 12 12 13 13 12 10 12 10 4
12 13 14 15 14 13 13 13 12 12 11 11 10 12 13 12 4 9 8 10 9 6 4 1 12 38 35 20 22 31 27 15 15 13 13 11 12 12 11 11 7 11 7
11 12 12 12 14 13 10 9 10 10 11 10 12 13 12 11 4 2 2 3 10 9 12 7 11 22 19 17 20 21 14 15 16 14 13 11 10 11 11 10 10 9 5
10 10 10 9 11 11 10 9 9 9 11 10 11 11 12 10 6 5 1 2 6 7 10 6 7 9 14 13 12 10 11 12 11 11 13 13 12 12 10 11 9 10 5
9 8 9 8 8 9 10 12 8 9 13 10 15 13 12 15 19 6 5 4 12 15 6 8 7 9 11 10 10 10 10 13 11 11 12 12 14 13 12 11 10 9 10
9 9 8 9 8 9 10 11 14 17 18 14 19 22 25 20 15 12 6 15 1 3 10 8 10 10 9 9 9 9 11 9 13 11 11 11 11 11 14 11 10 10 9
8 11 7 7 8 8 9 10 9 11 13 15 19 23 25 24 16 17 11 5 4 6 6 11 12 13 11 10 9 8 9 10 10 9 10 11 11 13 12 11 10 11 12
7 7 7 8 7 10 8 8 9 10 10 11 12 18 21 23 14 16 12 6 5 6 6 6 5 12 12 11 9 9 8 8 7 9 9 11 11 12 11 10 10 12 14
6 11 8 6 6 8 8 8 9 9 10 9 9 11 14 15 12 11 8 6 5 6 6 7 5 7 10 13 11 8 8 7 7 7 9 9 10 10 11 12 11 13 10
6 6 7 6 7 7 6 8 8 8 8 9 8 9 14 8 8 8 8 7 6 5 5 7 6 5 8 11 10 8 8 7 7 7 8 9 10 10 9 9 11 11 11
6 6 7 7 6 7 8 7 8 8 8 9 9 10 13 8 9 9 9 9 7 6 5 6 6 4 7 8 7 8 8 8 7 8 8 9 9 10 10 11 12 11 12
4 5 7 7 7 7 6 7 8 9 9 9 9 9 10 9 8 9 9 9 9 8 6 5 6 6 6 5 4 6 8 8 8 9 10 10 10 10 11 12 13 13 13
5 5 8 7 7 8 8 8 6 6 6 9 9 9 10 10 9 10 9 8 8 8 7 7 7 7 7 5 4 5 5 5 7 9 14 12 11 11 11 11 12 13 13
4 4 5 8 9 7 7 8 9 10 10 10 10 9 10 10 10 11 10 9 9 9 10 9 7 8 7 8 6 6 7 8 8 8 8 11 14 15 13 12 13 12 14
4 5 4 5 6 7 7 9 9 9 10 10 10 10 10 11 11 11 10 10 9 9 10 9 10 12 10 8 6 6 6 7 7 8 9 11 12 11 11 14 18 12 15
Wind_Direction
283 283 281 291 288 292 288 287 285 285 280 274 273 275 271 265 261 258 255 251 249 243 235 221 208 194 192 196 188 179 167 164 153 92 132 151 148 149 147 138 145 136 144
280 285 292 288 291 291 289 286 287 284 284 277 277 274 270 268 267 261 260 259 253 243 230 221 204 198 192 194 186 179 173 161 139 145 136 157 150 156 145 144 149 140 142
287 294 296 299 298 292 291 290 286 284 280 278 274 272 272 270 268 264 259 264 247 240 227 212 199 193 189 183 182 174 164 149 134 146 137 170 138 138 139 135 136 126 123
291 297 298 297 296 292 290 287 286 283 280 280 274 274 275 271 268 270 262 260 249 242 222 212 195 191 186 176 172 171 158 147 132 139 142 144 141 149 144 145 134 126 133
293 293 291 293 295 295 291 292 291 286 282 283 279 280 275 271 269 273 268 261 264 237 216 207 196 183 182 174 165 165 156 151 145 147 142 155 142 154 169 163 141 138 89
287 295 295 298 296 293 292 292 289 285 281 278 273 278 277 273 272 281 285 293 275 233 213 182 181 177 166 166 169 165 163 159 157 150 158 164 162 166 154 164 145 148 163
297 302 304 304 299 297 294 290 285 284 284 279 277 284 278 273 277 277 269 272 234 218 184 180 183 175 168 171 174 163 165 164 164 161 162 171 162 175 156 160 163 166 148
309 307 308 310 305 300 296 290 287 286 283 281 280 284 277 275 274 293 304 236 190 171 180 176 182 166 173 173 164 163 169 160 164 158 167 169 173 166 168 157 149 122 97
313 314 316 311 306 302 297 292 289 286 281 276 277 280 272 268 266 236 267 258 186 180 159 167 167 160 167 160 163 163 157 157 122 130 156 149 148 150 150 137 153 142 134
324 318 311 310 303 301 298 296 290 281 275 274 280 273 263 267 264 265 260 240 191 155 160 176 167 176 160 168 167 159 157 159 148 128 119 110 136 154 159 161 158 159 138
324 312 311 307 306 303 304 310 319 308 284 281 275 281 292 276 281 252 227 223 182 168 174 190 187 181 165 176 166 174 164 153 147 138 136 134 146 157 163 166 176 165 158
317 313 310 312 314 310 318 316 323 330 324 316 310 316 318 307 281 294 192 225 166 169 183 193 207 166 169 181 166 161 144 140 142 139 143 151 160 164 170 165 170 164 152
316 315 313 317 316 324 325 326 327 333 333 331 325 334 328 323 294 254 212 202 158 151 167 44 214 170 163 161 154 142 143 142 146 151 153 161 164 156 145 148 110 100 72
320 318 321 320 322 328 331 331 329 331 335 327 338 339 326 309 309 21 77 163 91 94 107 88 125 138 141 129 142 147 150 149 153 154 151 140 138 153 149 152 148 136 108
323 322 324 317 329 333 333 322 321 323 326 332 335 320 327 322 342 16 47 152 114 120 106 88 90 91 115 130 143 146 142 131 145 145 139 142 153 155 152 160 153 149 118
328 334 329 326 332 333 331 325 312 300 321 316 300 319 340 331 304 301 147 102 135 133 94 115 103 105 115 131 135 129 135 145 148 144 141 153 157 155 154 159 154 153 144
337 345 336 334 340 339 337 337 337 336 342 335 345 355 356 331 346 34 118 110 206 179 130 134 129 128 134 135 142 140 140 135 141 141 148 156 151 147 152 152 147 138 130
349 352 341 335 340 342 339 337 339 339 341 336 345 347 355 351 349 36 43 72 52 42 151 142 145 140 137 123 115 133 138 123 122 140 155 151 149 146 154 152 154 143 135
348 355 346 7 356 344 339 340 338 341 344 340 345 349 353 344 355 30 20 49 53 60 57 79 136 132 129 121 104 93 103 125 140 147 155 143 146 153 158 150 148 148 144
351 357 353 14 8 351 343 346 349 348 346 351 354 358 341 349 11 8 13 13 38 69 64 65 63 98 103 116 112 122 115 129 148 150 150 145 149 154 153 150 149 147 150
359 354 351 22 10 5 1 355 349 348 351 351 352 355 344 347 356 1 7 18 32 29 56 79 75 73 105 103 111 120 141 148 166 146 143 142 147 143 142 137 137 136 132
6 350 1 15 7 6 358 356 355 350 357 357 351 352 2 15 4 7 2 8 26 39 32 57 66 69 86 104 130 145 153 144 138 133 132 141 139 137 134 138 138 132 132
352 357 10 13 7 7 14 0 354 360 5 360 360 4 7 14 14 11 6 1 9 15 33 63 81 74 68 76 103 136 140 145 141 142 137 140 139 139 142 140 143 147 147
355 4 18 21 13 10 12 13 9 5 0 5 12 12 10 8 13 16 19 12 18 23 20 30 47 62 80 91 96 93 100 114 136 148 143 145 147 143 144 142 148 148 142
358 11 3 13 17 9 3 6 10 9 12 15 13 14 14 14 19 19 19 18 26 27 29 28 37 47 56 93 98 98 111 124 132 134 142 142 146 147 142 141 141 137 141
343 1 8 4 20 14 12 25 19 13 13 11 14 14 15 16 17 21 24 29 32 33 31 30 37 41 44 44 59 97 113 113 118 127 138 141 143 141 143 140 140 139 146